Showing default

ZHUHAI-1 03E, 44539

Orbit data source: Space-Track

ZHUHAI-1 03E, 44539 is a payload satellite owned by Zhuhai Orbita (CN) in SSO that was launched on Thu, 19 Sep 2019 UTC via a CHANG ZHENG 11 launch vehicle from the Jiuquan Satellite Launch Center, China (JSC). Payload-class satellites include a variety of spacecraft equipped with specific instruments for various scientific and technological missions. These include communications satellites like Starlink; space stations such as the ISS; scientific satellites like the Hubble; Earth observation satellites from companies like Planet Labs, Umbra, and HawkEye 360; GPS; miniature CubeSats for education and research; and military/defense satellites.

Loading next visibility...
Identifier
44539, 2019-060F
Orbit
SSO
Last TLE update
10 hours ago
Origin
Manufacturer
Harbin
Mission
Operational Commercial Imaging
Bus & Motor
OVS-1, Unknown motor
Mass
95 kg wet, 95 kg dry
Launch date (UTC)
2019-09-19 (6 years ago)
Launch vehicle
CHANG ZHENG 11
Launch site
Jiuquan Satellite Launch Center, China (JSC)
Object type
Payload
Rocket body
Debris
Shape & HBR
Box, Unknown HBR
Radar Cross Section
0.375 m², Medium (>0.1 m² and < 1m²)

Expand to show TLE details & history

TLE from 10 hours ago
0 ZHUHAI-1 03E
1 44539U 19060F   25187.54830253  .00010679  00000-0  39668-3 0  9992
2 44539  97.5222 325.1240 0012172 157.0321 203.1464 15.27670367322778
Epoch: 2025-07-06T13:09Z
TLE epoch observation values (Epoch: 2025-07-06T13:09:33.338Z)
Latitude
-0.00009°
Longitude
-157.03531°
Altitude
493.558 km
Speed
7.614 km/s
True Right ascension
21h 40m 29s
True Declination
0° 00' 00"
Sunlit
Object was in full shadow at epoch
Visualization orbit readout
Latitude
64.97103°
Longitude
-172.96111°
Altitude
493.925 km
Speed
7.624 km/s
Apparent Right ascension
22h 02m 39s
Apparent Declination
15° 53' 19"
Sunlit
Object is in daylight
Visualization observer readout
Local Sidereal Time
10:52:57
Azimuth
14.457° NNE
Elevation
-32.978°
Doppler factor
1
Orbital elements
Apogee altitude
488.087 km
Perigee altitude
471.392 km
Semi-major axis
6,857.876 km
Eccentricity
0.00122
Inclination
97.5222°
RAAN
325.124°
Arg. of periapsis
157.0321°
True anomaly
Unknown
Mean anomaly
203.1464°
Eccentric anomaly
Unknown
Mean motion
3.82172 °/min
Orbital period
94.2 mins
BSTAR
0.00039668
Loading maneuver chart data...
Loading SW <> Apogee altitude chart data...
Loading historical data...
Loading historical data...
Loading historical data...
Loading historical data...
Loading historical data...
Loading historical data...
Loading historical data...

ZHUHAI-1 03E Visibility forecast

Observer location: undefined°, undefined°

Span
Click to sort rows by Start time (UTC) header in descending order
Start Az.
Max El. time (UTC)
Max El. Az.
Max El.
End time (UTC)
End Az.
5 mins2025-07-07 09:43:45.356Z204.181° SW2025-07-07 09:45:45.356Z251.715° W29.05°2025-07-07 09:48:45.356Z324.732° NNW
4 mins2025-07-07 22:44:45.356Z328.554° NNW2025-07-07 22:46:45.356Z275.728° WNW22.939°2025-07-07 22:48:45.356Z236.535° WSW
|